[[{"header":{"parameterUnit":"m.s-1","parameterCategory":1,"la1":30.2991,"la2":30.254,"lo1":-89.0895,"lo2":-89.0444,"dy":0.0017,"dx":0.0017,"nx":28,"ny":28,"refTime":"2023-10-27T21:00:00:Z","depth":0,"parameterNumber":2,"parameterNumberName":"U-component_of_WINDS"},"data":[0,0,0,0,0,0,0,0,0,0,0,0,0,0,0,0,0,0,0,0,0,0,0,0,0,0,0,0,0,0,0,0,0,0,0,0,0,0,0,0,0,0,0,0,0,0,0,0,0,0,0,0,0,0,0,0,0,0,-2.9569,-2.9568,0,-2.9554,-2.9553,-2.9553,-2.9465,-2.9462,-2.946,-2.9458,-2.9444,-2.9445,-2.9447,0,0,0,0,0,0,0,0,0,0,0,0,0,-2.9523,-2.9525,-2.9569,-2.9568,-2.9568,-2.9554,-2.9553,-2.9553,-2.9465,-2.9462,-2.946,-2.9457,-2.9443,-2.9445,-2.9447,0,0,0,0,0,0,0,0,0,0,0,0,0,-2.9529,-2.9525,-2.9569,-2.9522,-2.9518,-2.9554,-2.9553,-2.9553,-2.9465,-2.9462,-2.9459,-2.9456,-2.9442,-2.9445,-2.9447,-2.9526,0,0,-2.9455,-2.9456,0,0,0,0,0,0,0,0,-2.9529,-2.9531,-2.9529,-2.9526,-2.9521,-2.9508,-2.9532,-2.9544,-2.9466,-2.9486,-2.9458,-2.9454,-2.9468,-2.9468,-2.9472,-2.9526,-2.9525,-2.9455,-2.9456,-2.9457,-2.9458,0,0,0,0,0,0,0,-2.9529,-2.9531,-2.9563,-2.953,-2.9524,-2.9503,-2.9501,-2.9534,-2.9495,-2.9484,-2.9477,-2.9477,-2.9465,-2.947,-2.9471,-2.9525,-2.9455,-2.9457,-2.9458,-2.9459,-2.9645,-2.9649,0,0,0,0,0,0,-2.9535,-2.9531,-2.9563,-2.9562,-2.9517,-2.9507,-2.9504,-2.9515,-2.9494,-2.9488,-2.9479,-2.9472,-2.9467,-2.9468,-2.947,-2.9563,-2.9457,-2.9459,-2.9461,-2.9642,-2.9646,-2.965,0,0,0,0,0,0,-2.9534,-2.9538,-2.9564,-2.9545,-2.9547,-2.9511,-2.9525,-2.9517,-2.9522,-2.9491,-2.9484,-2.9492,-2.9465,-2.9467,-2.9514,-2.9561,-2.9461,-2.9463,-2.9638,-2.9643,-2.9648,-2.9749,0,0,0,0,0,0,-2.9533,-2.9538,-2.9567,-2.9546,-2.9548,-2.9607,-2.9527,-2.9519,-2.9526,-2.9517,-2.9501,-2.9495,-2.9462,-2.951,-2.9516,-2.9563,-2.9465,-2.9633,-2.964,-2.9646,-2.9741,-2.9757,-2.977,0,0,0,0,0,-2.9532,-2.9596,-2.9569,-2.9574,-2.9583,-2.961,-2.9611,-2.9572,-2.953,-2.9559,-2.954,-2.9495,-2.9555,-2.9516,-2.9521,-2.957,-2.963,-2.9638,-2.9646,-2.9734,-2.9754,-2.977,0,0,0,0,0,0,-2.9622,-2.9592,-2.9562,-2.9621,-2.9619,-2.9595,-2.963,-2.9593,-2.9603,-2.9594,-2.9546,-2.9543,-2.9598,-2.9588,-2.9545,-2.9647,-2.9585,-2.9595,-2.9651,-2.9669,-2.9683,-2.9684,-2.9467,0,0,0,0,0,-2.965,-2.9673,-2.9645,-2.97,-2.9701,-2.9666,-2.9676,-2.9647,-2.9642,-2.9641,-2.9625,-2.9623,-2.9641,-2.9654,-2.9669,-2.9739,-2.9736,-2.9776,-2.979,-2.9802,-2.9811,-2.985,-2.9868,-2.9676,-2.9676,-2.9676,0,0,-2.9705,-2.9692,-2.9709,-2.9718,-2.9713,-2.974,-2.9666,-2.9696,-2.9716,-2.9645,-2.9689,-2.9678,-2.9672,-2.9732,-2.9757,-2.9726,-2.9864,-2.9812,-2.9822,-2.9824,-2.986,-2.9878,-2.9895,-2.9681,-2.968,-2.9679,0,0,-2.9821,-2.9812,-2.9858,-2.9855,-2.9848,-2.9825,-2.9837,-2.9819,-2.9809,-2.9852,-2.9801,-2.9824,-2.9856,-2.9855,-2.9859,-2.9978,-2.9938,-2.9984,-3.0061,-3.0099,-3.0114,-3.0128,-3.0172,-3.0188,-2.9993,-2.9993,-2.9993,0,-2.9891,-2.9928,-2.9886,-2.9921,-2.9928,-2.9866,-2.9913,-2.9912,-2.9911,-2.9918,-2.9882,-2.9924,-2.9915,-2.9975,-3.0005,-3.0009,-3.0022,-2.9986,-3.0116,-3.0128,-3.014,-3.0182,-3.0198,-2.9999,-2.9998,-2.9998,-2.9997,0,-3.0016,-3.0043,-3.0081,-3.0083,-3.0093,-3.0134,-3.01,-3.0116,-3.0087,-3.0068,-3.0115,-3.0103,-3.0116,-3.0128,-3.0099,-3.0185,-3.0166,-3.0124,-3.0061,-3.0165,-3.0204,-3.0219,-3.0007,-3.0005,-3.0004,-3.0002,0,0,-3.0186,-3.0166,-3.0181,-3.0182,-3.0172,-3.0192,-3.0232,-3.0245,-3.0261,-3.0263,-3.0295,-3.0326,-3.0288,-3.0293,-3.0263,-3.0297,-3.0395,-3.0251,-3.025,-3.028,-3.0491,-3.0523,-3.0542,-3.0368,-3.0371,-3.0373,-3.0492,0,-3.0298,-3.0363,-3.0328,-3.0399,-3.0425,-3.0369,-3.0403,-3.0402,-3.0386,-3.0407,-3.0389,-3.0412,-3.036,-3.0362,-3.0393,-3.0376,-3.0437,-3.0367,-3.04,-3.0401,-3.0403,-3.0562,-3.0595,-3.0708,-3.0506,-3.0509,-3.0511,0,-3.0436,-3.0446,-3.052,-3.0507,-3.0517,-3.0548,-3.0559,-3.0579,-3.0577,-3.0563,-3.0571,-3.0534,-3.0573,-3.0512,-3.0566,-3.052,-3.0531,-3.0526,-3.0529,-3.0531,-3.0463,-3.0569,-3.0742,-3.076,-3.0534,-3.0532,-3.053,0,-3.0555,-3.0586,-3.0635,-3.0637,-3.0624,-3.0648,-3.0643,-3.0638,-3.0649,-3.0659,-3.0666,-3.0681,-3.0689,-3.0701,-3.0671,-3.0628,-3.073,-3.0665,-3.0721,-3.0722,-3.0745,-3.0744,-3.0924,-3.0752,-3.0751,-3.0751,-3.0751,0,-3.0684,-3.0731,-3.0688,-3.0719,-3.0771,-3.0732,-3.0785,-3.0774,-3.0771,-3.0799,-3.0751,-3.0779,-3.0736,-3.076,-3.0736,-3.0786,-3.079,-3.0781,-3.0774,-3.0786,-3.0787,-3.0793,-3.0785,-3.0755,-3.0754,-3.0754,-3.0753,0,-3.0825,-3.0798,-3.0848,-3.0832,-3.0829,-3.0869,-3.0855,-3.0883,-3.0866,-3.0902,-3.0909,-3.0881,-3.0907,-3.0878,-3.0901,-3.0885,-3.0953,-3.0934,-3.0954,-3.0949,-3.1008,-3.1003,-3.1197,-3.1222,-3.1033,-3.1035,-3.1037,0,-3.0909,-3.0944,-3.0933,-3.0949,-3.0948,-3.0973,-3.0985,-3.0949,-3.0963,-3.0965,-3.0994,-3.1016,-3.1031,-3.1076,-3.1058,-3.1077,-3.1059,-3.1126,-3.1061,-3.1073,-3.1062,-3.106,-3.1065,-3.1139,-3.1141,-3.1143,-3.1144,0,-3.1062,-3.1047,-3.1066,-3.1082,-3.1098,-3.1108,-3.1114,-3.113,-3.1092,-3.1112,-3.1138,-3.115,-3.1175,-3.1199,-3.1213,-3.1209,-3.1172,-3.1165,-3.1179,-3.1192,-3.1203,-3.1199,-3.0991,-3.1161,-3.1159,-3.1158,-3.1157,-3.1156,-3.1177,-3.1208,-3.1206,-3.1229,-3.1231,-3.1239,-3.1265,-3.1252,-3.1274,-3.1291,-3.1269,-3.1302,-3.1302,-3.1317,-3.1318,-3.1344,-3.1316,-3.1336,-3.1341,-3.1347,-3.1356,-3.1198,-3.1346,-3.1346,-3.1345,-3.1345,-3.1344,0,-3.1329,-3.1326,-3.1348,-3.136,-3.1379,-3.1343,-3.1349,-3.1368,-3.1398,-3.1401,-3.1419,-3.1451,-3.1474,-3.1459,-3.1479,-3.1503,-3.1487,-3.151,-3.1508,-3.1509,-3.138,-3.1366,-3.1523,-3.1523,-3.1523,-3.1523,-3.1523,-3.1523,-3.141,-3.146,-3.1447,-3.1498,-3.1494,-3.1527,-3.1534,-3.1542,-3.1545,-3.1583,-3.1602,-3.1593,-3.159,-3.161,-3.163,-3.1625,-3.1636,-3.1665,-3.1655,-3.1535,-3.1517,-3.15,-3.1488,-3.1668,-3.1668,-3.1781,-3.1783,-3.1783]},{"header":{"parameterUnit":"m.s-1","parameterCategory":1,"la1":30.2991,"la2":30.254,"lo1":-89.0895,"lo2":-89.0444,"dy":0.0017,"dx":0.0017,"nx":28,"ny":28,"refTime":"2023-10-27T21:00:00:Z","depth":0,"parameterNumber":3,"parameterNumberName":"V-component_of_WINDS"},"data":[0,0,0,0,0,0,0,0,0,0,0,0,0,0,0,0,0,0,0,0,0,0,0,0,0,0,0,0,0,0,0,0,0,0,0,0,0,0,0,0,0,0,0,0,0,0,0,0,0,0,0,0,0,0,0,0,0,0,-0.0593,-0.0593,0,-0.0654,-0.0655,-0.0655,-0.0676,-0.0676,-0.0676,-0.0675,-0.0743,-0.0745,-0.0747,0,0,0,0,0,0,0,0,0,0,0,0,0,-0.0496,-0.0498,-0.0593,-0.0593,-0.0594,-0.0654,-0.0655,-0.0656,-0.0676,-0.0676,-0.0675,-0.0675,-0.0742,-0.0744,-0.0747,0,0,0,0,0,0,0,0,0,0,0,0,0,-0.0546,-0.0499,-0.0593,-0.0612,-0.0614,-0.0654,-0.0655,-0.0656,-0.0676,-0.0676,-0.0675,-0.0675,-0.0741,-0.0744,-0.0747,-0.0774,0,0,-0.0756,-0.0758,0,0,0,0,0,0,0,0,-0.0543,-0.055,-0.0608,-0.061,-0.0613,-0.0657,-0.0646,-0.0696,-0.0676,-0.0653,-0.0675,-0.0675,-0.0715,-0.072,-0.0732,-0.0777,-0.078,-0.0757,-0.0759,-0.076,-0.0761,0,0,0,0,0,0,0,-0.054,-0.0547,-0.0617,-0.0609,-0.0612,-0.0618,-0.0625,-0.0655,-0.0685,-0.0655,-0.0656,-0.0663,-0.0716,-0.0729,-0.0734,-0.0781,-0.0757,-0.0759,-0.0761,-0.0762,-0.085,-0.085,0,0,0,0,0,0,-0.0533,-0.0544,-0.0615,-0.0619,-0.0576,-0.062,-0.0627,-0.0643,-0.0685,-0.0691,-0.0663,-0.0664,-0.0724,-0.0731,-0.0737,-0.077,-0.076,-0.0763,-0.0765,-0.0849,-0.085,-0.0851,0,0,0,0,0,0,-0.0531,-0.0539,-0.0613,-0.0582,-0.0592,-0.0622,-0.064,-0.0645,-0.0658,-0.0691,-0.0697,-0.0671,-0.0724,-0.0732,-0.0764,-0.0773,-0.0764,-0.0767,-0.0849,-0.085,-0.085,-0.0838,0,0,0,0,0,0,-0.0528,-0.0538,-0.0548,-0.0582,-0.0593,-0.0638,-0.064,-0.0646,-0.0663,-0.0664,-0.07,-0.0706,-0.0725,-0.0759,-0.0767,-0.0777,-0.0769,-0.0848,-0.0849,-0.085,-0.0838,-0.0838,-0.0839,0,0,0,0,0,-0.0524,-0.0543,-0.0548,-0.0557,-0.0606,-0.0639,-0.0645,-0.0665,-0.0663,-0.0674,-0.0695,-0.0705,-0.077,-0.0762,-0.0771,-0.0782,-0.0848,-0.0849,-0.085,-0.0838,-0.0838,-0.0839,0,0,0,0,0,0,-0.0511,-0.0548,-0.0554,-0.0585,-0.0608,-0.0642,-0.0656,-0.0665,-0.069,-0.0691,-0.0715,-0.0723,-0.0753,-0.0771,-0.0761,-0.081,-0.081,-0.0813,-0.0797,-0.0798,-0.0798,-0.0794,-0.0772,0,0,0,0,0,-0.0512,-0.0534,-0.0565,-0.0589,-0.06,-0.0626,-0.0641,-0.0653,-0.0679,-0.069,-0.0714,-0.074,-0.0766,-0.0783,-0.0809,-0.084,-0.0848,-0.0852,-0.0852,-0.0852,-0.0855,-0.0872,-0.0874,-0.0854,-0.0854,-0.0854,0,0,-0.0513,-0.0536,-0.0549,-0.0587,-0.0607,-0.063,-0.0634,-0.0659,-0.0676,-0.0694,-0.0725,-0.0743,-0.0774,-0.0805,-0.082,-0.0821,-0.0862,-0.0854,-0.0854,-0.0856,-0.0873,-0.0875,-0.0877,-0.0855,-0.0855,-0.0855,0,0,-0.0528,-0.0547,-0.0569,-0.0588,-0.0617,-0.0634,-0.0638,-0.0671,-0.0683,-0.0714,-0.0727,-0.0749,-0.0794,-0.0815,-0.0831,-0.0851,-0.0862,-0.0859,-0.0862,-0.0878,-0.088,-0.0881,-0.0888,-0.0891,-0.0862,-0.0862,-0.0862,0,-0.0527,-0.0561,-0.0579,-0.0602,-0.0619,-0.0634,-0.0656,-0.0674,-0.0711,-0.0722,-0.0722,-0.0777,-0.0799,-0.0835,-0.0839,-0.0852,-0.0859,-0.0856,-0.0878,-0.088,-0.0881,-0.0888,-0.0891,-0.0861,-0.0861,-0.0861,-0.0861,0,-0.0558,-0.0582,-0.0596,-0.0628,-0.0646,-0.0669,-0.0691,-0.0707,-0.0718,-0.0734,-0.0765,-0.0791,-0.0822,-0.0832,-0.0844,-0.0869,-0.0869,-0.0873,-0.0873,-0.0882,-0.0889,-0.0892,-0.086,-0.0861,-0.0861,-0.0861,0,0,-0.0568,-0.0609,-0.0614,-0.0628,-0.0661,-0.068,-0.0703,-0.0731,-0.0744,-0.0769,-0.0789,-0.0826,-0.0829,-0.0848,-0.0862,-0.0876,-0.089,-0.0878,-0.088,-0.088,-0.0919,-0.0916,-0.0919,-0.0896,-0.0897,-0.0897,-0.0917,0,-0.0587,-0.0628,-0.0644,-0.0677,-0.0699,-0.0713,-0.0733,-0.0755,-0.0771,-0.0792,-0.0811,-0.0836,-0.0839,-0.085,-0.0864,-0.0885,-0.0898,-0.0884,-0.0916,-0.0917,-0.0908,-0.0922,-0.092,-0.0937,-0.0919,-0.092,-0.092,0,-0.0615,-0.0637,-0.0672,-0.07,-0.071,-0.0728,-0.0755,-0.0775,-0.08,-0.0811,-0.083,-0.0843,-0.0868,-0.0866,-0.0901,-0.0891,-0.0905,-0.0917,-0.0918,-0.0923,-0.092,-0.0927,-0.0943,-0.0945,-0.0925,-0.0925,-0.0924,0,-0.0618,-0.0658,-0.0683,-0.0695,-0.0729,-0.0741,-0.0756,-0.078,-0.0796,-0.082,-0.083,-0.0857,-0.0872,-0.0893,-0.0913,-0.0909,-0.0946,-0.0946,-0.0956,-0.0956,-0.0964,-0.0964,-0.0982,-0.0973,-0.0973,-0.0973,-0.0973,0,-0.0638,-0.0659,-0.0685,-0.0701,-0.0724,-0.0743,-0.0766,-0.0782,-0.0804,-0.0823,-0.0837,-0.0856,-0.088,-0.0902,-0.0917,-0.0944,-0.0951,-0.0961,-0.0965,-0.096,-0.0958,-0.097,-0.0969,-0.0973,-0.0973,-0.0973,-0.0973,0,-0.0647,-0.0665,-0.0693,-0.0722,-0.0729,-0.0746,-0.0771,-0.0787,-0.0802,-0.0827,-0.0834,-0.0859,-0.0885,-0.0906,-0.0941,-0.0952,-0.0979,-0.0984,-0.097,-0.0973,-0.0982,-0.0981,-0.1009,-0.1013,-0.1,-0.1,-0.1,0,-0.0658,-0.0674,-0.0704,-0.0717,-0.0731,-0.0752,-0.0768,-0.0786,-0.0802,-0.0831,-0.0844,-0.087,-0.0893,-0.0934,-0.0956,-0.0982,-0.0988,-0.0996,-0.0992,-0.0986,-0.0988,-0.0987,-0.0988,-0.0996,-0.0996,-0.0996,-0.0996,0,-0.0677,-0.0684,-0.0705,-0.0729,-0.0746,-0.0766,-0.0787,-0.0797,-0.082,-0.0837,-0.0862,-0.0879,-0.0913,-0.094,-0.0968,-0.0984,-0.0994,-0.0997,-0.1001,-0.0996,-0.0987,-0.0992,-0.0972,-0.0997,-0.0997,-0.0997,-0.0997,-0.0997,-0.0687,-0.0701,-0.0724,-0.0747,-0.0763,-0.0782,-0.0798,-0.0815,-0.0836,-0.0864,-0.0874,-0.09,-0.0924,-0.0963,-0.0979,-0.1001,-0.1002,-0.1007,-0.1009,-0.101,-0.1009,-0.0983,-0.1006,-0.1006,-0.1006,-0.1006,-0.1006,0,-0.0706,-0.0721,-0.0741,-0.0768,-0.0786,-0.0791,-0.0814,-0.0829,-0.0851,-0.0872,-0.0893,-0.0922,-0.0947,-0.0971,-0.0997,-0.101,-0.1015,-0.1016,-0.1015,-0.1019,-0.1007,-0.1001,-0.1011,-0.1011,-0.1011,-0.1011,-0.1011,-0.1011,-0.0718,-0.0742,-0.0752,-0.0785,-0.08,-0.0825,-0.0837,-0.0854,-0.0871,-0.0902,-0.0922,-0.0936,-0.0959,-0.0986,-0.1009,-0.1016,-0.1025,-0.1025,-0.1032,-0.1021,-0.102,-0.1019,-0.1014,-0.1027,-0.1027,-0.1043,-0.1043,-0.1043]}]]